Flag for Russia Weather past 2 weeks in Surgut, Russia

Now
54 °F

Partly sunny.


Feels Like: 51 °F
Forecast: 44 / 69 °F
Wind: 8 mph from North

Location: Surgut Airport

Current Time: Jul 29, 2014 at 6:55:06 PM

Latest Report: Jul 29, 2014 at 6:00 PM


Visibility: 4 mi

Pressure: 29.74 "Hg

Humidity: 67%

Dew point: 43 °F

Location of SurgutLocation

Historic Weather in Surgut — Graph

°F

Surgut temperature yesterday

Maximum temperature yesterday: 64 °F (at 5:00 PM)
Minimum temperature yesterday: 52 °F (at 2:30 AM)
Average temperature yesterday: 57 °F

Past Weeks' High & Low Weather Summary

 TemperatureHumidityPressure
High75 °F (Jul 21, 5:30 PM)100% (Jul 17, 5:30 AM)29.95 "Hg (Jul 17, 5:30 AM)
Low39 °F (Jul 16, 4:30 AM)42% (Jul 15, 5:30 PM)29.24 "Hg (Jul 24, 5:30 AM)
Average56 °F75%29.62 "Hg
* Reported Jul 14 6:00 PM — Jul 29 6:00 PM, Surgut, Weather by CustomWeather, © 2014

Note: Actual official high and low records may vary slightly from our data, if they occured in-between our weather recording intervals... More about our weather records

Advertising

Surgut weather history for previous 24 hours

 ConditionsComfort  
Time TempWeatherWind HumidityBarometerVisibility
6:00 PM
Jul 29
54 °FPartly sunny.8 mph67%29.74 "Hg4 mi
5:30 PM54 °FPartly sunny.10 mph63%29.74 "Hg4 mi
5:00 PM54 °FPartly sunny.10 mph67%29.74 "Hg4 mi
4:30 PM54 °FPartly sunny.13 mph67%29.74 "Hg4 mi
4:00 PM54 °FPartly sunny.10 mph67%29.71 "Hg4 mi
3:30 PM54 °FPartly sunny.10 mph67%29.71 "Hg4 mi
3:00 PM54 °FPartly sunny.10 mph72%29.71 "Hg4 mi
2:30 PM52 °FPartly sunny.10 mph72%29.71 "Hg4 mi
2:00 PM54 °FPartly sunny.10 mph72%29.71 "Hg4 mi
1:30 PM54 °FPartly sunny.13 mph67%29.68 "Hg4 mi
1:00 PM54 °FPartly sunny.13 mph67%29.68 "Hg4 mi
12:30 PM54 °FPartly sunny.15 mph67%29.68 "Hg4 mi
12:00 PM54 °FPartly sunny.13 mph63%29.68 "Hg4 mi
11:30 AM54 °FPartly sunny.15 mph63%29.68 "Hg4 mi
11:00 AM54 °FPartly sunny.13 mph63%29.68 "Hg4 mi
10:30 AM54 °FPartly sunny.15 mph67%29.68 "Hg4 mi
10:00 AM54 °FBroken clouds.13 mph67%29.65 "Hg4 mi
9:30 AM54 °FBroken clouds.10 mph72%29.65 "Hg4 mi
9:00 AM54 °FBroken clouds.10 mph77%29.65 "Hg4 mi
8:30 AM54 °FBroken clouds.10 mph77%29.65 "Hg4 mi
8:00 AM54 °FBroken clouds.13 mph82%29.65 "Hg4 mi
7:30 AM54 °FScattered clouds.10 mph82%29.65 "Hg4 mi
7:00 AM54 °FBroken clouds.10 mph82%29.62 "Hg4 mi
6:30 AM54 °FBroken clouds.13 mph82%29.62 "Hg4 mi
6:00 AM54 °FBroken clouds.13 mph82%29.62 "Hg4 mi
5:30 AM54 °FBroken clouds.8 mph82%29.62 "Hg4 mi
5:00 AM54 °FPartly cloudy.8 mph88%29.62 "Hg4 mi
4:30 AM54 °FPartly cloudy.8 mph88%29.62 "Hg4 mi
4:00 AM54 °FPartly cloudy.15 mph88%29.62 "Hg4 mi
3:30 AM54 °FPassing clouds.10 mph88%29.62 "Hg4 mi
3:00 AM55 °FPassing clouds.10 mph77%29.59 "Hg4 mi
2:30 AM55 °FPassing clouds.8 mph77%29.59 "Hg4 mi
2:00 AM55 °FPassing clouds.8 mph77%29.59 "Hg4 mi
1:30 AM55 °FPassing clouds.8 mph77%29.59 "Hg4 mi
1:00 AM55 °FPassing clouds.8 mph77%29.59 "Hg4 mi
12:30 AM55 °FPassing clouds.8 mph82%29.59 "Hg4 mi
12:00 AM55 °FPassing clouds.10 mph82%29.59 "Hg4 mi
11:30 PM
Jul 28
55 °FSprinkles. Passing clouds.10 mph82%29.59 "Hg4 mi
11:00 PM57 °FPassing clouds.10 mph82%29.59 "Hg4 mi
10:30 PM57 °FBroken clouds.10 mph82%29.59 "Hg4 mi
10:00 PM57 °FBroken clouds.8 mph82%29.59 "Hg4 mi
9:30 PM57 °FBroken clouds.10 mph82%29.59 "Hg4 mi
9:00 PM59 °FBroken clouds.10 mph77%29.59 "Hg4 mi
8:30 PM59 °FBroken clouds.10 mph82%29.56 "Hg4 mi
8:00 PM59 °FPartly sunny.8 mph72%29.56 "Hg4 mi
7:30 PM59 °FPartly sunny.10 mph82%29.56 "Hg4 mi
7:00 PM61 °FPartly sunny.10 mph68%29.56 "Hg4 mi
6:30 PM63 °FPartly sunny.10 mph59%29.56 "Hg4 mi
6:00 PM64 °FPartly sunny.8 mph56%29.56 "Hg4 mi
Weather by CustomWeather, © 2014

See weather overviewHow to use our weather pages